User: anonymous   Login
Location: Unspecified
(0.0000°N, 0.0000°E)
Time: 20:47:15
(UTC+00:00)
Language:

TBA - TO BE ASSIGNED - Orbit

View from above orbital plane
View from above orbital plane
View from above satellite
View from above satellite

Ground track
Ground track

The orbit is defined by the following mean orbital elements,

1 69005U          26145.25378307 +.00000000 +00000-0 +13460-3 0 00003
2 69005  97.4060  43.4801 0007054  96.5552 263.6487 15.20141641    07
Epoch (UTC): 25 May 2026 06:05:26
Eccentricity: 0.0007054
inclination: 97.4060°
perigee height: 501 km
apogee height: 510 km
right ascension of ascending node: 43.4801°
argument of perigee: 96.5552°
revolutions per day: 15.20141641
mean anomaly at epoch: 263.6487°

The dashed part of the orbit path shows where the satellite is in the earth's shadow,  

DLR